MSC2948 EDDF-HEBA

Flight info

Callsign MSC2948
Flight time N/A
Altitude 35000
Route SULUS7S/18 SULUS Z650 TIPAM T703 BEPAS DCT DITIS DCT PESAT DCT BAREB DCT TUVAR DCT ODLET DCT VABEK UL603 OLOTA DCT DISOR UL608 FSK UG18 MES UL609 RDS UL995 VANZA N134 KOMEZ M855 RASDA A16 DEGDI V604 NOZ
Aircraft A320/M-SDE3FGHIRWY/LB1

Departure

Time 2026-05-04 17:35
Airport Frankfurt Main Airport (EDDF)

Arrival

Time N/A
Airport HEBA
Time Latitude Longitude Altitude Speed Heading
2026-05-04 16:56 50.03163 8.57036 358 ft 0 kts 25°
2026-05-04 17:21 50.03156 8.57031 364 ft 3 kts 24°
2026-05-04 17:22 50.03137 8.57018 360 ft 3 kts 21°
2026-05-04 17:22 50.03118 8.57007 362 ft 3 kts 19°
2026-05-04 17:23 50.03061 8.56995 358 ft 3 kts 329°
2026-05-04 17:23 50.03052 8.57006 354 ft 1 kts 297°
2026-05-04 17:23 50.03050 8.57011 361 ft 0 kts 297°
2026-05-04 17:26 50.03053 8.57002 354 ft 3 kts 297°
2026-05-04 17:26 50.03113 8.56923 358 ft 1 kts 341°
2026-05-04 17:27 50.03206 8.56871 359 ft 1 kts 340°
2026-05-04 17:27 50.03209 8.56869 358 ft 0 kts 340°
2026-05-04 17:29 50.03260 8.56727 355 ft 14 kts 250°
2026-05-04 17:29 50.03140 8.56216 351 ft 22 kts 249°
2026-05-04 17:30 50.02950 8.55423 350 ft 27 kts 250°
2026-05-04 17:31 50.02817 8.54871 347 ft 29 kts 250°
2026-05-04 17:31 50.02625 8.54020 332 ft 32 kts 249°
2026-05-04 17:32 50.02473 8.53388 336 ft 30 kts 249°
2026-05-04 17:33 50.02300 8.52670 334 ft 11 kts 249°
2026-05-04 17:33 50.02248 8.52605 333 ft 9 kts 188°
2026-05-04 17:34 50.01904 8.52608 334 ft 83 kts 179°
2026-05-04 17:34 50.01113 8.52615 329 ft 142 kts 180°
2026-05-04 17:35 49.97591 8.52708 1720 ft 179 kts 170°
2026-05-04 17:35 49.95594 8.55488 2098 ft 220 kts 117°
2026-05-04 17:35 49.94833 8.57660 2359 ft 241 kts 117°
2026-05-04 17:36 49.93989 8.60045 2748 ft 261 kts 118°
2026-05-04 17:36 49.93109 8.62521 3506 ft 265 kts 119°
2026-05-04 17:36 49.92209 8.65037 4357 ft 266 kts 120°
2026-05-04 17:36 49.91313 8.67529 5198 ft 268 kts 121°
2026-05-04 17:37 49.90396 8.70072 5997 ft 270 kts 121°
2026-05-04 17:37 49.89474 8.72629 6770 ft 273 kts 122°
2026-05-04 17:37 49.88539 8.75217 7515 ft 276 kts 122°
2026-05-04 17:37 49.87592 8.77837 8231 ft 280 kts 122°
2026-05-04 17:38 49.86638 8.80474 8977 ft 283 kts 123°
2026-05-04 17:38 49.85670 8.83147 9692 ft 286 kts 123°